DW9936 Weather Reports


time (UTC)temp
C
wind
direction
speed
KPH
gust
KPH
rain 1hr
cm
rain 24hr
cm
rain mn
cm
humidity
%
barometer
mb
20260504034554 8 167 0.0 0.0 0.00 0.00 0.00 81 1013.6
20260504033055 8 167 0.0 0.0 0.00 0.00 0.00 80 1013.7
20260504031550 8 167 0.0 0.0 0.00 0.00 0.00 80 1013.7
20260504030048 8 167 0.0 0.0 0.00 0.00 0.00 79 1013.6
20260504024547 9 168 0.0 0.0 0.00 0.00 0.00 78 1013.6
20260504023043 9 168 0.0 0.0 0.00 0.00 0.00 77 1013.6
20260504021543 10 168 0.0 0.0 0.00 0.00 0.00 76 1013.5
20260504020041 10 168 0.0 0.0 0.00 0.00 0.00 75 1013.5
20260504014539 10 168 0.0 0.0 0.00 0.00 0.00 73 1013.5
20260504013038 11 168 0.0 0.0 0.00 0.00 0.00 72 1013.5
20260504011533 11 167 0.0 0.0 0.00 0.00 0.00 72 1013.4
20260504010043 11 168 0.0 0.0 0.00 0.00 0.00 71 1013.3
20260504004531 11 153 0.0 0.0 0.00 0.00 0.00 72 1013.3
20260504003030 11 152 0.0 0.0 0.00 0.00 0.00 71 1013.2
20260504001530 11 152 0.0 0.0 0.00 0.00 0.00 72 1013.1
20260504000028 11 152 0.0 0.0 0.00 0.00 0.00 71 1013.1
20260503234527 11 152 0.0 0.0 0.00 0.00 0.00 71 1013.1
20260503233025 11 152 0.0 0.0 0.00 0.00 0.00 70 1013.2
20260503231522 11 152 0.0 0.0 0.00 0.00 0.00 69 1013.1
20260503230023 12 152 0.0 0.0 0.00 0.00 0.00 68 1013.1
20260503224516 12 152 0.0 0.0 0.00 0.00 0.00 68 1013.2
20260503223014 12 152 0.0 0.0 0.00 0.00 0.00 66 1013.2
20260503221513 13 152 0.0 0.0 0.00 0.00 0.00 63 1013.3
20260503220008 13 152 0.0 0.0 0.00 0.00 0.00 60 1013.2
20260503214506 14 152 0.0 0.0 0.00 0.00 0.00 58 1013.3
20260503213015 14 152 0.0 0.0 0.00 0.00 0.00 57 1013.3
20260503211514 15 152 0.0 0.0 0.00 0.00 0.00 56 1013.4
20260503210006 15 152 0.0 0.0 0.00 0.00 0.00 54 1013.5
20260503204505 16 152 0.0 1.6 0.00 0.00 0.00 53 1013.5
20260503203005 16 150 0.0 0.0 0.00 0.00 0.00 51 1013.5
20260503201509 17 141 0.0 1.6 0.00 0.00 0.00 50 1013.6
20260503200004 17 136 0.0 1.6 0.00 0.00 0.00 49 1013.6
20260503194504 18 142 0.0 1.6 0.00 0.00 0.00 47 1013.6
20260503193003 18 138 0.0 0.0 0.00 0.00 0.00 46 1013.6
20260503191503 18 99 0.0 1.6 0.00 0.00 0.00 46 1013.6
20260503190002 19 105 0.0 1.6 0.00 0.00 0.00 45 1013.6
20260503184502 19 86 0.0 0.0 0.00 0.00 0.00 45 1013.5
20260503183000 20 84 0.0 0.0 0.00 0.00 0.00 44 1013.2
20260503181504 21 84 0.0 0.0 0.00 0.00 0.00 42 1013.1
20260503180135 22 84 0.0 4.8 0.00 0.00 0.00 40 1013.0
20260503174601 22 98 0.0 3.2 0.00 0.00 0.00 38 1013.0
20260503173103 23 38 0.0 9.7 0.00 0.00 0.00 37 1012.9
20260503171559 23 129 0.0 14.5 0.00 0.00 0.00 37 1012.9
20260503170104 23 153 0.0 9.7 0.00 0.00 0.00 36 1012.9
20260503081543 19 130 1.6 8.0 0.00 0.00 0.00 47 1018.2
20260503071531 17 57 0.0 4.8 0.00 0.00 0.00 52 1018.4
20260503054600 12 323 0.0 0.0 0.00 0.00 0.00 64 1018.3
20260503053056 11 323 0.0 0.0 0.00 0.00 0.00 71 1018.3
20260503051552 8 323 0.0 0.0 0.00 0.00 0.00 76 1018.3
20260503050051 7 323 0.0 0.0 0.00 0.00 0.00 81 1018.4
20260503044617 6 323 0.0 0.0 0.00 0.00 0.00 83 1018.4
20260503043046 5 323 0.0 0.0 0.00 0.00 0.00 83 1018.3
20260503041548 5 323 0.0 0.0 0.00 0.00 0.00 82 1018.3
20260503040043 5 323 0.0 0.0 0.00 0.00 0.00 81 1018.3